Flag for Canada Weather past 2 weeks in Brantford, Ontario, Canada

Now
57 °F

Passing clouds.


Feels Like: 55 °F
Forecast: 45 / 64 °F
Wind: 12 mph from Northwest

Location: Hamilton Airport

Current Time: Sep 16, 2014 at 10:31:38 AM

Latest Report: Sep 16, 2014 at 10:00 AM


Visibility: 15 mi

Pressure: 30.12 "Hg

Humidity: 72%

Dew point: 48 °F

Location of BrantfordLocation

Historic Weather in Brantford — Graph

°F

Brantford temperature yesterday

Maximum temperature yesterday: 63 °F (at 12:00 PM)
Minimum temperature yesterday: 45 °F (at 6:00 AM)
Average temperature yesterday: 54 °F

Past Weeks' High & Low Weather Summary

 TemperatureHumidityPressure
High84 °F (Sep 5, 3:00 PM)100% (Sep 1, 10:00 AM)30.36 "Hg (Sep 1, 10:00 AM)
Low41 °F (Sep 14, 6:00 AM)46% (Sep 7, 3:00 PM)29.55 "Hg (Sep 11, 4:00 AM)
Average63 °F82%30.05 "Hg
* Reported Sep 1 9:00 AM — Sep 16 9:00 AM, Brantford, Weather by CustomWeather, © 2014

Note: Actual official high and low records may vary slightly from our data, if they occured in-between our weather recording intervals... More about our weather records

Advertising

Brantford weather history for previous 24 hours

 ConditionsComfort  
Time TempWeatherWind HumidityBarometerVisibility
9:00 AM
Sep 16
54 °FPassing clouds.8 mph88%30.11 "Hg15 mi
8:00 AM52 °FScattered clouds.3 mph94%30.10 "Hg15 mi
7:00 AM50 °FPartly cloudy.5 mph100%30.09 "Hg15 mi
6:00 AM52 °FPassing clouds.6 mph94%30.07 "Hg15 mi
5:00 AM52 °FMostly cloudy.5 mph94%30.06 "Hg15 mi
4:00 AM52 °FPartly cloudy.6 mph94%30.05 "Hg15 mi
3:00 AM52 °FOvercast.3 mph94%30.04 "Hg15 mi
2:00 AM52 °FMostly cloudy.3 mph100%30.04 "Hg10 mi
1:00 AM54 °FMostly cloudy.6 mph94%30.04 "Hg10 mi
12:55 AM54 °FMostly cloudy.5 mph94%30.04 "Hg10 mi
12:00 AM52 °FSprinkles. Mostly cloudy.3 mph100%30.05 "Hg12 mi
11:00 PM
Sep 15
54 °FOvercast.6 mph94%30.06 "Hg12 mi
10:00 PM54 °FOvercast.5 mph94%30.06 "Hg15 mi
9:00 PM54 °FMostly cloudy.3 mph94%30.07 "Hg15 mi
8:00 PM54 °FMore clouds than sun.2 mph94%30.06 "Hg12 mi
7:00 PM54 °FCloudy.3 mph94%30.07 "Hg10 mi
6:00 PM55 °FLight rain. Fog.9 mph94%30.09 "Hg3 mi
5:00 PM57 °FSprinkles. Cloudy.9 mph82%30.09 "Hg12 mi
4:00 PM59 °FCloudy.10 mph77%30.10 "Hg15 mi
3:00 PM59 °FMore clouds than sun.9 mph77%30.10 "Hg15 mi
2:00 PM61 °FMostly cloudy.9 mph68%30.11 "Hg15 mi
1:00 PM63 °FMore clouds than sun.14 mph59%30.14 "Hg15 mi
12:00 PM63 °FBroken clouds.17 mph59%30.16 "Hg15 mi
11:00 AM61 °FBroken clouds.12 mph63%30.16 "Hg15 mi
10:00 AM59 °FPartly sunny.8 mph63%30.19 "Hg15 mi
Weather by CustomWeather, © 2014

See weather overviewHow to use our weather pages